Regional Weather Roundup
Issued by NWS

Home | Current Version | Previous Version | Graphics & Text | Print | Product List | Glossary On
Versions: 1 2 3 4 5 6 7 8 9 10 11 12 13 14 15 16 17 18 19 20 21 22 23 24 25 26 27 28 29 30 31 32 33 34 35 36 37 38 39 40 41 42 43 44 45 46 47 48 49 50
000
ASUS45 KTFX 300104
RWRMT
MONTANA HOURLY WEATHER ROUNDUP
NATIONAL WEATHER SERVICE GREAT FALLS MT
604 PM MST THU JAN 29 2015

NOTE: "FAIR" INDICATES FEW OR NO CLOUDS BELOW 12000 FEET WITH NO
SIGNIFICANT WEATHER AND/OR OBSTRUCTIONS TO VISIBILITY.

* THESE STATIONS ARE NOT UNDER NWS QUALITY CONTROL. THEY DO NOT
   REPORT WEATHER SUCH AS PRECIPITATION OR FOG.

MTZ001>007-043-300200-
WEST OF THE DIVIDE
CITY           SKY/WX    TMP DP  RH WIND       PRES   REMARKS
KALISPELL      PTCLDY    25  21  85 CALM      30.35S
MISSOULA       CLOUDY    32  25  75 NE3       30.35R
BUTTE          CLOUDY    30  23  75 SE5       30.30R WCI  25
MULLAN PASS    MOCLDY    32  19  59 W3        30.28F
* ANACONDA     CLOUDY    30  25  82 N/A        N/A
* ESSEX        N/A       27  23  85 NW1        N/A
* LINCOLN      N/A       37  20  50 S6         N/A   WCI  32
* LOOKOUT PASS N/A       32  25  75 NW4        N/A
* POLSON       N/A       28  26  92 N/A        N/A
* RONAN APT    PTCLDY    28  28 100 N/A        N/A
* SEELEY LAKE  N/A       33  23  67 N1         N/A
* THOMP F APT  PTCLDY    33  20  59 NE3        N/A
$$

MTZ008-052>055-300200-
SOUTHWEST MONTANA
CITY           SKY/WX    TMP DP  RH WIND       PRES   REMARKS
BOZEMAN        CLOUDY    36  25  64 S3        30.30S
DILLON         CLOUDY    30  25  82 S10       30.29F WCI  21
* W YELLOWSTON CLOUDY    27  23  85 N/A        N/A
* THREE FORKS  CLOUDY    36  30  79 N/A        N/A
* BOULDER HILL N/A       34  19  54 S4         N/A
* MONIDA PASS  N/A       16  16 100 SW4        N/A
* RAYNOLDS PAS N/A       26   9  48 SE5        N/A   WCI  20
* WHITEHALL    N/A       38  21  50 W4         N/A
* WISE RIVER   N/A       30  20  66 W7         N/A   WCI  23
$$

MTZ009>010-012-014-046-048-049-054-300200-
EAST SLOPES AND CENTRAL MONTANA
CITY           SKY/WX    TMP DP  RH WIND       PRES   REMARKS
CUT BANK       MOCLDY    39  12  33 W15       30.19R WCI  31
GREAT FALLS    MOCLDY    41  19  41 S10       30.20S
HELENA         CLOUDY    37  28  70 W6        30.28S WCI  32
MALMSTROM AFB  MOCLDY    37  21  52 SW8       30.21S WCI  31
* DEARBORN     N/A       45  18  34 S4         N/A
* EAST GLACIER N/A       38   9  30 W22G34     N/A   WCI  27
* MONARCH      N/A       40   4  22 S6         N/A   WCI  36
* PENDROY      N/A       42  12  29 S4G9       N/A
* ROGERS PASS  N/A       36  16  44 SE4G12     N/A
* SWEET GRASS  N/A       36  36 100 SW15       N/A   WCI  27
$$

MTZ011-013-016-021-035-040-045-047-050-051-300200-
NORTH CENTRAL MONTANA
CITY           SKY/WX    TMP DP  RH WIND       PRES   REMARKS
HAVRE          PTCLDY    34  28  79 CALM      30.19F
LEWISTOWN      CLOUDY    37  23  57 S5        30.21F WCI  33
* N BAR RANCH  CLEAR     37  23  57 NW5       30.22S WCI  33
* CHESTER      N/A       32  28  85 N/A        N/A
* DENTON       N/A       38  25  60 S9         N/A   WCI  32
* GEYSER       N/A       33  18  54 S8         N/A   WCI  26
* JUDITH GAP   N/A       37  22  55 SE10G16    N/A   WCI  30
* LOMA         N/A       38  31  76 NE6        N/A   WCI  33
$$

MTZ017>020-022>027-061-062-300200-
NORTHEAST MONTANA
CITY           SKY/WX    TMP DP  RH WIND       PRES   REMARKS
GLASGOW        CLEAR     32  28  85 E13       30.25F WCI  22
GLENDIVE       CLEAR     36  27  70 SE6       30.33F WCI  31
JORDAN         PTCLDY    36  25  64 SE5       30.25F WCI  32
SIDNEY         CLEAR     28  23  81 CALM      30.36F
WOLF POINT     CLEAR     30  25  82 NE6       30.30F WCI  24
* BEAVER HILL  N/A       31  21  66 SE10       N/A   WCI  22
* CIRCLE       N/A       37  27  67 N/A        N/A
* NAVAJO       N/A       26  22  85 SE7        N/A   WCI  18
* SACO         N/A       28  27  96 NE7        N/A   WCI  21
$$

MTZ028>042-056>058-300200-
SOUTHCENTRAL AND SOUTHEAST MONTANA
CITY           SKY/WX    TMP DP  RH WIND       PRES   REMARKS
BAKER          CLEAR     27  18  69 S6        30.34F WCI  20
BILLINGS       PTCLDY    43  28  56 W12       30.25F
LIVINGSTON     MOCLDY    41  21  45 W13       30.25S
MILES CITY     PTCLDY    37  23  57 SE8       30.29F WCI  31
* LAUREL APT   PTCLDY    43  23  45 SW9        N/A
* ROUNDUP APT  PTCLDY    45  23  42 S5         N/A
* ALZADA       N/A       34  22  61 E6         N/A   WCI  29
* HYSHAM       N/A       42  17  36 SE3        N/A
* LAME DEER    N/A       37  20  50 S7         N/A   WCI  32
* REED POINT   N/A       40  24  53 SW2        N/A
* ROSCOE HILL  N/A       37  18  46 SW4        N/A
$$

REGIONAL REPORTS...DAKOTAS
CITY           SKY/WX    TMP DP  RH WIND       PRES   REMARKS
WILLISTON      CLEAR     27  19  72 SE7       30.36F WCI  19
DICKINSON      PTCLDY    27  18  69 E9        30.35S WCI  18
CROSBY         CLEAR     19  19 100 E6        30.37F WCI  11
WATFORD CITY   CLEAR     27  23  85 SE8       30.35F WCI  19
BISMARCK       CLEAR     21  18  88 E7        30.47S WCI  12
GRAND FORKS    PTCLDY     7   0  73 N6        30.57S WCI  -4
FARGO          CLEAR     12   3  67 N7        30.56R WCI   1
BUFFALO SD     CLEAR     34  10  37 SE8       30.30S WCI  27
RAPID CITY     CLEAR     34  14  44 E3        30.39S
$$

REGIONAL REPORTS...WYOMING/IDAHO/WASHINGTON
CITY           SKY/WX    TMP DP  RH WIND       PRES   REMARKS
GILLETTE       CLEAR     30  23  75 S8        30.30S WCI  22
SHERIDAN       CLEAR     30  21  69 SW3       30.27F
CODY           PTCLDY    36  28  73 SE7       30.29S WCI  30
YELLOWSTONE LA PTCLDY    16  10  77 CALM      30.37R
SALMON         CLOUDY    27  21  78 CALM      30.38S
MULLAN PASS    MOCLDY    32  19  59 W3        30.28S
SAND POINT     PTCLDY    34  34 100 CALM      30.38S
SPOKANE        PTCLDY    34  30  85 N5        30.37R WCI  29

$$



USA.gov is the U.S. government's official web portal to all federal, state and local government web resources and services.